Location: Atherton
(17.2661°S, 145.4859°E)
Time: 22:58:47
(UTC+10:00)

Vanguard 1 - Pass Details

Date: 25 June 2025
Orbit: 649 x 3822 km, 34.2° (Epoch: 17 July)

Event Time Altitude Azimuth Distance (km) Brightness Sun altitude
Rises 23:32:52 0° 238° (WSW) 4,838 - -77.2°
Reaches altitude 10° 23:37:40 10° 223° (SW) 3,276 - -78.2°
Maximum altitude 23:42:58 20° 178° (S) 2,059 - -79.2°
Drops below altitude 10° 23:46:54 10° 130° (SE) 2,336 - -80.0°
Sets 23:49:37 0° 111° (ESE) 3,082 - -80.5°
